Location: ActonStarParty
(42.4766°N, 71.4538°W)
Time: 16:51:03
(UTC-05:00)

ISS - Visible Passes

Search period start: 03 December 2016 00:00
Search period end: 13 December 2016 00:00
Orbit: 401 x 410 km, 51.6° (Epoch: 04 December)

Date Brightness Start Highest point End Pass type
(mag) Time Alt. Az. Time Alt. Az. Time Alt. Az.
03 Dec -2.9 17:44:57 10° WSW 17:48:11 56° NNW 17:49:08 39° NNE visible
04 Dec -3.3 16:52:57 10° SW 16:56:14 83° SE 16:59:20 11° ENE visible
04 Dec -0.9 18:30:20 10° WNW 18:32:01 20° NW 18:32:01 20° NW visible
05 Dec -1.9 17:37:57 10° W 17:40:55 30° NNW 17:42:10 23° NNE visible
06 Dec -2.6 16:45:39 10° WSW 16:48:50 46° NNW 16:52:03 10° NE visible
06 Dec -0.8 18:23:35 10° NW 18:24:57 16° NNW 18:24:57 16° NNW visible
07 Dec -1.4 17:31:08 10° WNW 17:33:43 21° NNW 17:35:02 17° NNE visible
08 Dec -1.8 16:38:40 10° W 16:41:32 27° NNW 16:44:25 10° NE visible
08 Dec -0.8 18:16:37 10° NW 18:17:46 15° NNW 18:17:46 15° NNW visible
09 Dec -1.3 17:24:16 10° NW 17:26:33 17° N 17:27:49 14° NNE visible
10 Dec -0.9 18:09:18 10° NW 18:10:33 15° NNW 18:10:33 15° NNW visible
11 Dec -1.3 17:17:09 10° NW 17:19:22 17° N 17:20:37 14° NNE visible
12 Dec -1.4 18:01:42 10° NW 18:03:25 20° N 18:03:25 20° N visible
